Year,Month,Day,Hour,Minute,Value (Times are PST for windgust in km/hr)
2015,08,30,00,06,3.20
2015,08,30,00,07,3.20
2015,08,30,00,08,3.20
2015,08,30,00,09,3.20
2015,08,30,00,23,1.60
2015,08,30,00,24,3.20
2015,08,30,00,25,1.60
2015,08,30,00,34,3.20
2015,08,30,00,35,3.20
2015,08,30,00,36,4.80
2015,08,30,00,37,4.80
2015,08,30,00,38,1.60
2015,08,30,00,42,3.20
2015,08,30,00,43,4.80
2015,08,30,00,44,4.80
2015,08,30,00,45,8.10
2015,08,30,00,46,4.80
2015,08,30,00,47,4.80
2015,08,30,00,48,3.20
2015,08,30,00,49,3.20
2015,08,30,00,50,8.10
2015,08,30,00,51,9.60
2015,08,30,00,52,8.10
2015,08,30,00,53,8.10
2015,08,30,00,54,8.10
2015,08,30,00,55,8.10
2015,08,30,00,56,4.80
2015,08,30,00,57,1.60
2015,08,30,00,58,1.60
2015,08,30,01,00,3.20
2015,08,30,01,01,3.20
2015,08,30,01,08,3.20
2015,08,30,01,09,3.20
2015,08,30,01,12,4.80
2015,08,30,01,13,4.80
2015,08,30,01,14,4.80
2015,08,30,01,15,3.20
2015,08,30,01,27,4.80
2015,08,30,01,28,4.80
2015,08,30,01,29,1.60
2015,08,30,01,48,3.20
2015,08,30,01,49,3.20
2015,08,30,01,50,4.80
2015,08,30,01,51,4.80
2015,08,30,01,52,4.80
2015,08,30,01,53,4.80
2015,08,30,01,54,6.40
2015,08,30,01,55,6.40
2015,08,30,01,56,3.20
2015,08,30,01,57,1.60
2015,08,30,02,00,1.60
2015,08,30,02,01,4.80
2015,08,30,02,02,1.60
2015,08,30,02,09,1.60
2015,08,30,02,10,1.60
2015,08,30,02,23,1.60
2015,08,30,03,04,3.20
2015,08,30,03,05,3.20
2015,08,30,03,06,4.80
2015,08,30,03,07,3.20
2015,08,30,03,08,4.80
2015,08,30,03,09,8.10
2015,08,30,03,10,3.20
2015,08,30,03,11,4.80
2015,08,30,03,12,3.20
2015,08,30,03,13,4.80
2015,08,30,03,14,4.80
2015,08,30,03,15,1.60
2015,08,30,03,16,4.80
2015,08,30,03,17,3.20
2015,08,30,03,18,4.80
2015,08,30,03,19,6.40
2015,08,30,03,20,4.80
2015,08,30,03,21,4.80
2015,08,30,03,22,4.80
2015,08,30,03,23,4.80
2015,08,30,03,24,4.80
2015,08,30,03,25,4.80
2015,08,30,03,26,3.20
2015,08,30,03,27,3.20
2015,08,30,03,28,1.60
2015,08,30,03,33,1.60
2015,08,30,03,34,3.20
2015,08,30,03,35,3.20
2015,08,30,03,36,1.60
2015,08,30,03,37,4.80
2015,08,30,03,39,1.60
2015,08,30,03,40,3.20
2015,08,30,03,41,4.80
2015,08,30,03,42,3.20
2015,08,30,03,43,3.20
2015,08,30,03,46,3.20
2015,08,30,03,53,3.20
2015,08,30,03,54,4.80
2015,08,30,03,58,1.60
2015,08,30,03,59,1.60
2015,08,30,04,05,3.20
2015,08,30,04,06,3.20
2015,08,30,04,07,3.20
2015,08,30,04,08,1.60
2015,08,30,04,12,6.40
2015,08,30,04,13,4.80
2015,08,30,04,14,4.80
2015,08,30,04,15,3.20
2015,08,30,04,16,4.80
2015,08,30,04,18,4.80
2015,08,30,04,19,4.80
2015,08,30,04,22,1.60
2015,08,30,04,23,4.80
2015,08,30,04,24,1.60
2015,08,30,04,26,1.60
2015,08,30,04,36,4.80
2015,08,30,04,37,4.80
2015,08,30,04,38,9.60
2015,08,30,04,39,8.10
2015,08,30,04,40,4.80
2015,08,30,04,41,9.60
2015,08,30,04,42,8.10
2015,08,30,04,43,8.10
2015,08,30,04,44,8.10
2015,08,30,04,45,4.80
2015,08,30,04,46,8.10
2015,08,30,04,47,4.80
2015,08,30,04,49,1.60
2015,08,30,04,52,1.60
2015,08,30,04,53,3.20
2015,08,30,04,54,1.60
2015,08,30,04,55,4.80
2015,08,30,04,56,8.10
2015,08,30,04,57,4.80
2015,08,30,04,58,4.80
2015,08,30,04,59,6.40
2015,08,30,05,00,3.20
2015,08,30,05,01,8.10
2015,08,30,05,02,9.60
2015,08,30,05,03,8.10
2015,08,30,05,04,9.60
2015,08,30,05,05,3.20
2015,08,30,05,06,3.20
2015,08,30,05,07,3.20
2015,08,30,05,08,8.10
2015,08,30,05,09,6.40
2015,08,30,05,10,6.40
2015,08,30,05,11,6.40
2015,08,30,05,12,6.40
2015,08,30,05,13,8.10
2015,08,30,05,14,8.10
2015,08,30,05,15,6.40
2015,08,30,05,16,8.10
2015,08,30,05,17,8.10
2015,08,30,05,18,8.10
2015,08,30,05,19,8.10
2015,08,30,05,20,6.40
2015,08,30,05,21,8.10
2015,08,30,05,22,9.60
2015,08,30,05,23,6.40
2015,08,30,05,24,9.60
2015,08,30,05,25,4.80
2015,08,30,05,26,8.10
2015,08,30,05,27,8.10
2015,08,30,05,28,8.10
2015,08,30,05,29,8.10
2015,08,30,05,30,6.40
2015,08,30,05,31,6.40
2015,08,30,05,32,9.60
2015,08,30,05,33,8.10
2015,08,30,05,34,8.10
2015,08,30,05,35,8.10
2015,08,30,05,36,6.40
2015,08,30,05,37,9.60
2015,08,30,05,38,6.40
2015,08,30,05,39,9.60
2015,08,30,05,40,9.60
2015,08,30,05,41,9.60
2015,08,30,05,42,8.10
2015,08,30,05,43,8.10
2015,08,30,05,44,9.60
2015,08,30,05,45,9.60
2015,08,30,05,46,8.10
2015,08,30,05,47,8.10
2015,08,30,05,48,8.10
2015,08,30,05,49,8.10
2015,08,30,05,50,8.10
2015,08,30,05,51,9.60
2015,08,30,05,52,6.40
2015,08,30,05,53,8.10
2015,08,30,05,54,9.60
2015,08,30,05,55,9.60
2015,08,30,05,56,6.40
2015,08,30,05,57,8.10
2015,08,30,05,58,6.40
2015,08,30,05,59,8.10
2015,08,30,06,00,8.10
2015,08,30,06,01,6.40
2015,08,30,06,02,8.10
2015,08,30,06,03,4.80
2015,08,30,06,04,4.80
2015,08,30,06,05,6.40
2015,08,30,06,06,6.40
2015,08,30,06,07,6.40
2015,08,30,06,08,8.10
2015,08,30,06,09,8.10
2015,08,30,06,10,9.60
2015,08,30,06,11,9.60
2015,08,30,06,12,4.80
2015,08,30,06,13,4.80
2015,08,30,06,14,4.80
2015,08,30,06,15,4.80
2015,08,30,06,16,6.40
2015,08,30,06,17,8.10
2015,08,30,06,18,4.80
2015,08,30,06,19,4.80
2015,08,30,06,20,9.60
2015,08,30,06,21,9.60
2015,08,30,06,22,6.40
2015,08,30,06,23,4.80
2015,08,30,06,24,4.80
2015,08,30,06,25,4.80
2015,08,30,06,26,3.20
2015,08,30,06,27,1.60
2015,08,30,06,31,3.20
2015,08,30,06,32,1.60
2015,08,30,06,33,1.60
2015,08,30,06,39,1.60
2015,08,30,06,40,4.80
2015,08,30,06,41,4.80
2015,08,30,06,42,4.80
2015,08,30,06,43,4.80
2015,08,30,06,44,6.40
2015,08,30,06,45,3.20
2015,08,30,06,47,4.80
2015,08,30,06,48,3.20
2015,08,30,06,49,3.20
2015,08,30,06,50,3.20
2015,08,30,06,51,8.10
2015,08,30,06,52,4.80
2015,08,30,06,54,3.20
2015,08,30,06,55,4.80
2015,08,30,06,56,8.10
2015,08,30,06,57,4.80
2015,08,30,06,58,4.80
2015,08,30,06,59,3.20
2015,08,30,07,03,4.80
2015,08,30,07,04,1.60
2015,08,30,07,05,4.80
2015,08,30,07,06,4.80
2015,08,30,07,07,4.80
2015,08,30,07,09,3.20
2015,08,30,07,10,3.20
2015,08,30,07,11,3.20
2015,08,30,07,12,1.60
2015,08,30,07,13,3.20
2015,08,30,07,14,1.60
2015,08,30,07,15,4.80
2015,08,30,07,16,4.80
2015,08,30,07,18,9.60
2015,08,30,07,19,3.20
2015,08,30,07,20,3.20
2015,08,30,07,21,3.20
2015,08,30,07,22,1.60
2015,08,30,07,24,4.80
2015,08,30,07,25,3.20
2015,08,30,07,26,8.10
2015,08,30,07,27,6.40
2015,08,30,07,29,3.20
2015,08,30,07,30,8.10
2015,08,30,07,31,6.40
2015,08,30,07,32,3.20
2015,08,30,07,33,4.80
2015,08,30,07,34,3.20
2015,08,30,07,39,3.20
2015,08,30,07,40,4.80
2015,08,30,07,41,4.80
2015,08,30,07,42,3.20
2015,08,30,07,43,4.80
2015,08,30,07,44,3.20
2015,08,30,07,45,6.40
2015,08,30,07,46,6.40
2015,08,30,07,47,3.20
2015,08,30,07,48,1.60
2015,08,30,07,50,1.60
2015,08,30,07,52,6.40
2015,08,30,07,53,6.40
2015,08,30,07,54,6.40
2015,08,30,07,55,3.20
2015,08,30,07,56,1.60
2015,08,30,07,57,4.80
2015,08,30,07,58,6.40
2015,08,30,07,59,6.40
2015,08,30,08,00,6.40
2015,08,30,08,01,4.80
2015,08,30,08,02,6.40
2015,08,30,08,03,4.80
2015,08,30,08,04,6.40
2015,08,30,08,05,4.80
2015,08,30,08,06,4.80
2015,08,30,08,07,3.20
2015,08,30,08,08,6.40
2015,08,30,08,09,4.80
2015,08,30,08,10,4.80
2015,08,30,08,11,6.40
2015,08,30,08,12,8.10
2015,08,30,08,13,8.10
2015,08,30,08,14,4.80
2015,08,30,08,15,1.60
2015,08,30,08,16,4.80
2015,08,30,08,17,4.80
2015,08,30,08,18,4.80
2015,08,30,08,19,1.60
2015,08,30,08,20,3.20
2015,08,30,08,21,6.40
2015,08,30,08,22,4.80
2015,08,30,08,23,4.80
2015,08,30,08,24,3.20
2015,08,30,08,26,1.60
2015,08,30,08,27,1.60
2015,08,30,08,28,1.60
2015,08,30,08,29,6.40
2015,08,30,08,30,3.20
2015,08,30,08,31,3.20
2015,08,30,08,33,3.20
2015,08,30,08,34,3.20
2015,08,30,08,38,4.80
2015,08,30,08,39,9.60
2015,08,30,08,40,3.20
2015,08,30,08,41,1.60
2015,08,30,08,42,6.40
2015,08,30,08,43,11.30
2015,08,30,08,44,14.50
2015,08,30,08,45,14.50
2015,08,30,08,46,11.30
2015,08,30,08,47,11.30
2015,08,30,08,48,11.30
2015,08,30,08,49,6.40
2015,08,30,08,50,3.20
2015,08,30,08,51,3.20
2015,08,30,08,52,4.80
2015,08,30,08,53,4.80
2015,08,30,08,54,8.10
2015,08,30,08,55,4.80
2015,08,30,08,56,6.40
2015,08,30,08,57,6.40
2015,08,30,08,58,3.20
2015,08,30,08,59,8.10
2015,08,30,09,00,8.10
2015,08,30,09,01,9.60
2015,08,30,09,02,8.10
2015,08,30,09,03,4.80
2015,08,30,09,04,4.80
2015,08,30,09,05,3.20
2015,08,30,09,06,6.40
2015,08,30,09,07,1.60
2015,08,30,09,08,4.80
2015,08,30,09,09,8.10
2015,08,30,09,10,6.40
2015,08,30,09,11,6.40
2015,08,30,09,12,12.90
2015,08,30,09,13,8.10
2015,08,30,09,14,9.60
2015,08,30,09,15,8.10
2015,08,30,09,16,8.10
2015,08,30,09,17,4.80
2015,08,30,09,18,3.20
2015,08,30,09,19,6.40
2015,08,30,09,20,3.20
2015,08,30,09,21,1.60
2015,08,30,09,22,6.40
2015,08,30,09,23,8.10
2015,08,30,09,24,6.40
2015,08,30,09,25,4.80
2015,08,30,09,26,6.40
2015,08,30,09,27,14.50
2015,08,30,09,28,6.40
2015,08,30,09,29,6.40
2015,08,30,09,30,9.60
2015,08,30,09,31,4.80
2015,08,30,09,32,4.80
2015,08,30,09,33,4.80
2015,08,30,09,34,4.80
2015,08,30,09,35,4.80
2015,08,30,09,36,1.60
2015,08,30,09,37,3.20
2015,08,30,09,38,3.20
2015,08,30,09,39,3.20
2015,08,30,09,40,4.80
2015,08,30,09,41,3.20
2015,08,30,09,42,9.60
2015,08,30,09,43,9.60
2015,08,30,09,44,8.10
2015,08,30,09,45,8.10
2015,08,30,09,46,9.60
2015,08,30,09,47,8.10
2015,08,30,09,48,12.90
2015,08,30,09,49,11.30
2015,08,30,09,50,16.10
2015,08,30,09,51,12.90
2015,08,30,09,52,8.10
2015,08,30,09,53,9.60
2015,08,30,09,54,9.60
2015,08,30,09,55,6.40
2015,08,30,09,56,9.60
2015,08,30,09,57,11.30
2015,08,30,09,58,14.50
2015,08,30,09,59,11.30
2015,08,30,10,00,9.60
2015,08,30,10,01,11.30
2015,08,30,10,02,9.60
2015,08,30,10,03,9.60
2015,08,30,10,04,11.30
2015,08,30,10,05,8.10
2015,08,30,10,06,6.40
2015,08,30,10,07,6.40
2015,08,30,10,08,3.20
2015,08,30,10,09,4.80
2015,08,30,10,10,6.40
2015,08,30,10,11,8.10
2015,08,30,10,12,8.10
2015,08,30,10,13,6.40
2015,08,30,10,14,4.80
2015,08,30,10,15,6.40
2015,08,30,10,16,3.20
2015,08,30,10,17,1.60
2015,08,30,10,18,1.60
2015,08,30,10,19,6.40
2015,08,30,10,20,4.80
2015,08,30,10,21,4.80
2015,08,30,10,22,4.80
2015,08,30,10,23,8.10
2015,08,30,10,24,6.40
2015,08,30,10,25,3.20
2015,08,30,10,26,3.20
2015,08,30,10,27,4.80
2015,08,30,10,28,4.80
2015,08,30,10,29,3.20
2015,08,30,10,30,4.80
2015,08,30,10,31,4.80
2015,08,30,10,32,1.60
2015,08,30,10,33,6.40
2015,08,30,10,34,4.80
2015,08,30,10,35,3.20
2015,08,30,10,36,3.20
2015,08,30,10,37,11.30
2015,08,30,10,38,6.40
2015,08,30,10,39,12.90
2015,08,30,10,40,12.90
2015,08,30,10,41,8.10
2015,08,30,10,42,4.80
2015,08,30,10,43,1.60
2015,08,30,10,44,4.80
2015,08,30,10,45,8.10
2015,08,30,10,46,4.80
2015,08,30,10,47,3.20
2015,08,30,10,48,4.80
2015,08,30,10,49,4.80
2015,08,30,10,50,12.90
2015,08,30,10,51,8.10
2015,08,30,10,52,1.60
2015,08,30,10,53,9.60
2015,08,30,10,54,11.30
2015,08,30,10,55,11.30
2015,08,30,10,56,6.40
2015,08,30,10,57,11.30
2015,08,30,10,58,8.10
2015,08,30,10,59,9.60
2015,08,30,11,00,9.60
2015,08,30,11,01,6.40
2015,08,30,11,02,11.30
2015,08,30,11,03,11.30
2015,08,30,11,04,12.90
2015,08,30,11,05,14.50
2015,08,30,11,06,12.90
2015,08,30,11,07,4.80
2015,08,30,11,08,8.10
2015,08,30,11,09,3.20
2015,08,30,11,10,4.80
2015,08,30,11,11,6.40
2015,08,30,11,12,3.20
2015,08,30,11,13,12.90
2015,08,30,11,14,8.10
2015,08,30,11,15,8.10
2015,08,30,11,16,11.30
2015,08,30,11,17,6.40
2015,08,30,11,18,8.10
2015,08,30,11,19,8.10
2015,08,30,11,20,14.50
2015,08,30,11,21,6.40
2015,08,30,11,22,11.30
2015,08,30,11,23,6.40
2015,08,30,11,24,8.10
2015,08,30,11,25,3.20
2015,08,30,11,26,8.10
2015,08,30,11,27,8.10
2015,08,30,11,28,11.30
2015,08,30,11,29,14.50
2015,08,30,11,30,9.60
2015,08,30,11,31,8.10
2015,08,30,11,32,12.90
2015,08,30,11,33,20.90
2015,08,30,11,34,12.90
2015,08,30,11,35,9.60
2015,08,30,11,36,14.50
2015,08,30,11,37,12.90
2015,08,30,11,38,14.50
2015,08,30,11,39,16.10
2015,08,30,11,40,14.50
2015,08,30,11,41,9.60
2015,08,30,11,42,9.60
2015,08,30,11,43,20.90
2015,08,30,11,44,12.90
2015,08,30,11,45,11.30
2015,08,30,11,46,17.70
2015,08,30,11,47,12.90
2015,08,30,11,48,14.50
2015,08,30,11,49,8.10
2015,08,30,11,50,11.30
2015,08,30,11,51,11.30
2015,08,30,11,52,11.30
2015,08,30,11,53,11.30
2015,08,30,11,54,9.60
2015,08,30,11,55,8.10
2015,08,30,11,56,12.90
2015,08,30,11,57,12.90
2015,08,30,11,58,11.30
2015,08,30,11,59,11.30
2015,08,30,12,00,11.30
2015,08,30,12,01,11.30
2015,08,30,12,02,11.30
2015,08,30,12,03,16.10
2015,08,30,12,04,20.90
2015,08,30,12,05,12.90
2015,08,30,12,06,11.30
2015,08,30,12,07,19.30
2015,08,30,12,08,16.10
2015,08,30,12,09,17.70
2015,08,30,12,10,16.10
2015,08,30,12,11,12.90
2015,08,30,12,12,16.10
2015,08,30,12,13,12.90
2015,08,30,12,14,6.40
2015,08,30,12,15,12.90
2015,08,30,12,16,8.10
2015,08,30,12,17,12.90
2015,08,30,12,18,11.30
2015,08,30,12,19,12.90
2015,08,30,12,20,8.10
2015,08,30,12,21,11.30
2015,08,30,12,22,12.90
2015,08,30,12,23,11.30
2015,08,30,12,24,9.60
2015,08,30,12,25,8.10
2015,08,30,12,26,8.10
2015,08,30,12,27,8.10
2015,08,30,12,28,11.30
2015,08,30,12,29,9.60
2015,08,30,12,30,4.80
2015,08,30,12,31,6.40
2015,08,30,12,32,4.80
2015,08,30,12,33,3.20
2015,08,30,12,34,8.10
2015,08,30,12,35,6.40
2015,08,30,12,36,8.10
2015,08,30,12,37,11.30
2015,08,30,12,38,17.70
2015,08,30,12,39,19.30
2015,08,30,12,40,16.10
2015,08,30,12,41,12.90
2015,08,30,12,42,11.30
2015,08,30,12,43,19.30
2015,08,30,12,44,22.50
2015,08,30,12,45,14.50
2015,08,30,12,46,12.90
2015,08,30,12,47,14.50
2015,08,30,12,48,12.90
2015,08,30,12,49,6.40
2015,08,30,12,50,4.80
2015,08,30,12,51,6.40
2015,08,30,12,52,9.60
2015,08,30,12,53,14.50
2015,08,30,12,54,14.50
2015,08,30,12,55,14.50
2015,08,30,12,56,17.70
2015,08,30,12,57,19.30
2015,08,30,12,58,14.50
2015,08,30,12,59,14.50
2015,08,30,13,00,17.70
2015,08,30,13,01,8.10
2015,08,30,13,02,6.40
2015,08,30,13,03,11.30
2015,08,30,13,04,12.90
2015,08,30,13,05,11.30
2015,08,30,13,06,9.60
2015,08,30,13,07,11.30
2015,08,30,13,08,11.30
2015,08,30,13,09,12.90
2015,08,30,13,10,9.60
2015,08,30,13,11,12.90
2015,08,30,13,12,14.50
2015,08,30,13,13,14.50
2015,08,30,13,14,9.60
2015,08,30,13,15,9.60
2015,08,30,13,16,11.30
2015,08,30,13,17,8.10
2015,08,30,13,18,9.60
2015,08,30,13,19,14.50
2015,08,30,13,20,17.70
2015,08,30,13,21,8.10
2015,08,30,13,22,6.40
2015,08,30,13,23,11.30
2015,08,30,13,24,16.10
2015,08,30,13,25,12.90
2015,08,30,13,26,11.30
2015,08,30,13,27,16.10
2015,08,30,13,28,8.10
2015,08,30,13,29,14.50
2015,08,30,13,30,16.10
2015,08,30,13,31,11.30
2015,08,30,13,32,12.90
2015,08,30,13,33,11.30
2015,08,30,13,34,4.80
2015,08,30,13,35,4.80
2015,08,30,13,36,11.30
2015,08,30,13,37,3.20
2015,08,30,13,38,3.20
2015,08,30,13,39,9.60
2015,08,30,13,40,4.80
2015,08,30,13,41,1.60
2015,08,30,13,42,6.40
2015,08,30,13,43,8.10
2015,08,30,13,44,6.40
2015,08,30,13,45,6.40
2015,08,30,13,46,6.40
2015,08,30,13,47,17.70
2015,08,30,13,48,12.90
2015,08,30,13,49,12.90
2015,08,30,13,50,6.40
2015,08,30,13,51,6.40
2015,08,30,13,52,3.20
2015,08,30,13,53,8.10
2015,08,30,13,54,6.40
2015,08,30,13,55,9.60
2015,08,30,13,56,16.10
2015,08,30,13,57,11.30
2015,08,30,13,58,14.50
2015,08,30,13,59,14.50
2015,08,30,14,00,12.90
2015,08,30,14,01,8.10
2015,08,30,14,02,11.30
2015,08,30,14,03,8.10
2015,08,30,14,04,12.90
2015,08,30,14,05,12.90
2015,08,30,14,06,20.90
2015,08,30,14,07,12.90
2015,08,30,14,08,12.90
2015,08,30,14,09,16.10
2015,08,30,14,10,11.30
2015,08,30,14,11,16.10
2015,08,30,14,12,12.90
2015,08,30,14,13,12.90
2015,08,30,14,14,8.10
2015,08,30,14,15,16.10
2015,08,30,14,16,16.10
2015,08,30,14,17,11.30
2015,08,30,14,18,12.90
2015,08,30,14,19,19.30
2015,08,30,14,20,22.50
2015,08,30,14,21,16.10
2015,08,30,14,22,14.50
2015,08,30,14,23,17.70
2015,08,30,14,24,12.90
2015,08,30,14,25,14.50
2015,08,30,14,26,12.90
2015,08,30,14,27,14.50
2015,08,30,14,28,14.50
2015,08,30,14,29,11.30
2015,08,30,14,30,14.50
2015,08,30,14,31,16.10
2015,08,30,14,32,16.10
2015,08,30,14,33,11.30
2015,08,30,14,34,12.90
2015,08,30,14,35,11.30
2015,08,30,14,36,14.50
2015,08,30,14,37,12.90
2015,08,30,14,38,8.10
2015,08,30,14,39,9.60
2015,08,30,14,40,11.30
2015,08,30,14,41,8.10
2015,08,30,14,42,9.60
2015,08,30,14,43,9.60
2015,08,30,14,44,8.10
2015,08,30,14,45,4.80
2015,08,30,14,46,6.40
2015,08,30,14,47,12.90
2015,08,30,14,48,9.60
2015,08,30,14,49,11.30
2015,08,30,14,50,11.30
2015,08,30,14,51,8.10
2015,08,30,14,52,8.10
2015,08,30,14,53,6.40
2015,08,30,14,54,11.30
2015,08,30,14,55,6.40
2015,08,30,14,56,8.10
2015,08,30,14,57,16.10
2015,08,30,14,58,12.90
2015,08,30,14,59,6.40
2015,08,30,15,00,4.80
2015,08,30,15,01,12.90
2015,08,30,15,02,14.50
2015,08,30,15,03,9.60
2015,08,30,15,04,11.30
2015,08,30,15,05,11.30
2015,08,30,15,06,9.60
2015,08,30,15,07,12.90
2015,08,30,15,08,20.90
2015,08,30,15,09,17.70
2015,08,30,15,10,12.90
2015,08,30,15,11,11.30
2015,08,30,15,12,12.90
2015,08,30,15,13,9.60
2015,08,30,15,14,11.30
2015,08,30,15,15,9.60
2015,08,30,15,16,12.90
2015,08,30,15,17,9.60
2015,08,30,15,18,11.30
2015,08,30,15,19,8.10
2015,08,30,15,20,14.50
2015,08,30,15,21,8.10
2015,08,30,15,22,11.30
2015,08,30,15,23,12.90
2015,08,30,15,24,12.90
2015,08,30,15,25,9.60
2015,08,30,15,26,12.90
2015,08,30,15,27,12.90
2015,08,30,15,28,14.50
2015,08,30,15,29,12.90
2015,08,30,15,30,12.90
2015,08,30,15,31,11.30
2015,08,30,15,32,11.30
2015,08,30,15,33,14.50
2015,08,30,15,34,12.90
2015,08,30,15,35,22.50
2015,08,30,15,36,17.70
2015,08,30,15,37,12.90
2015,08,30,15,38,12.90
2015,08,30,15,39,16.10
2015,08,30,15,40,12.90
2015,08,30,15,41,11.30
2015,08,30,15,42,12.90
2015,08,30,15,43,14.50
2015,08,30,15,44,16.10
2015,08,30,15,45,16.10
2015,08,30,15,46,17.70
2015,08,30,15,47,16.10
2015,08,30,15,48,16.10
2015,08,30,15,49,14.50
2015,08,30,15,50,12.90
2015,08,30,15,51,8.10
2015,08,30,15,52,9.60
2015,08,30,15,53,16.10
2015,08,30,15,54,12.90
2015,08,30,15,55,11.30
2015,08,30,15,56,11.30
2015,08,30,15,57,11.30
2015,08,30,15,58,9.60
2015,08,30,15,59,3.20
2015,08,30,16,00,4.80
2015,08,30,16,01,9.60
2015,08,30,16,02,9.60
2015,08,30,16,03,11.30
2015,08,30,16,04,4.80
2015,08,30,16,05,8.10
2015,08,30,16,06,4.80
2015,08,30,16,07,4.80
2015,08,30,16,08,8.10
2015,08,30,16,09,14.50
2015,08,30,16,10,11.30
2015,08,30,16,11,6.40
2015,08,30,16,12,8.10
2015,08,30,16,13,6.40
2015,08,30,16,14,6.40
2015,08,30,16,15,11.30
2015,08,30,16,16,9.60
2015,08,30,16,17,9.60
2015,08,30,16,18,6.40
2015,08,30,16,19,8.10
2015,08,30,16,20,9.60
2015,08,30,16,21,16.10
2015,08,30,16,22,16.10
2015,08,30,16,23,22.50
2015,08,30,16,24,17.70
2015,08,30,16,25,20.90
2015,08,30,16,26,12.90
2015,08,30,16,27,20.90
2015,08,30,16,28,22.50
2015,08,30,16,29,24.20
2015,08,30,16,30,22.50
2015,08,30,16,31,17.70
2015,08,30,16,32,14.50
2015,08,30,16,33,12.90
2015,08,30,16,34,8.10
2015,08,30,16,35,14.50
2015,08,30,16,36,6.40
2015,08,30,16,37,4.80
2015,08,30,16,38,6.40
2015,08,30,16,39,8.10
2015,08,30,16,40,8.10
2015,08,30,16,41,4.80
2015,08,30,16,42,8.10
2015,08,30,16,43,4.80
2015,08,30,16,44,3.20
2015,08,30,16,45,12.90
2015,08,30,16,46,6.40
2015,08,30,16,47,6.40
2015,08,30,16,48,9.60
2015,08,30,16,49,9.60
2015,08,30,16,50,11.30
2015,08,30,16,51,11.30
2015,08,30,16,52,4.80
2015,08,30,16,53,8.10
2015,08,30,16,54,6.40
2015,08,30,16,55,6.40
2015,08,30,16,56,9.60
2015,08,30,16,57,8.10
2015,08,30,16,58,6.40
2015,08,30,16,59,4.80
2015,08,30,17,00,8.10
2015,08,30,17,01,3.20
2015,08,30,17,02,8.10
2015,08,30,17,03,9.60
2015,08,30,17,04,9.60
2015,08,30,17,05,9.60
2015,08,30,17,06,8.10
2015,08,30,17,07,8.10
2015,08,30,17,08,6.40
2015,08,30,17,09,8.10
2015,08,30,17,10,9.60
2015,08,30,17,11,6.40
2015,08,30,17,12,4.80
2015,08,30,17,13,12.90
2015,08,30,17,14,8.10
2015,08,30,17,15,4.80
2015,08,30,17,16,11.30
2015,08,30,17,17,11.30
2015,08,30,17,18,11.30
2015,08,30,17,19,8.10
2015,08,30,17,20,3.20
2015,08,30,17,21,8.10
2015,08,30,17,22,14.50
2015,08,30,17,23,12.90
2015,08,30,17,24,11.30
2015,08,30,17,25,4.80
2015,08,30,17,26,4.80
2015,08,30,17,27,6.40
2015,08,30,17,28,14.50
2015,08,30,17,29,8.10
2015,08,30,17,30,4.80
2015,08,30,17,31,8.10
2015,08,30,17,32,8.10
2015,08,30,17,34,6.40
2015,08,30,17,35,4.80
2015,08,30,17,36,4.80
2015,08,30,17,37,4.80
2015,08,30,17,38,14.50
2015,08,30,17,39,14.50
2015,08,30,17,40,9.60
2015,08,30,17,41,14.50
2015,08,30,17,42,11.30
2015,08,30,17,43,6.40
2015,08,30,17,44,4.80
2015,08,30,17,45,6.40
2015,08,30,17,46,3.20
2015,08,30,17,47,3.20
2015,08,30,17,48,6.40
2015,08,30,17,49,9.60
2015,08,30,17,50,11.30
2015,08,30,17,51,4.80
2015,08,30,17,52,4.80
2015,08,30,17,53,4.80
2015,08,30,17,54,4.80
2015,08,30,17,55,11.30
2015,08,30,17,56,8.10
2015,08,30,17,57,6.40
2015,08,30,17,58,8.10
2015,08,30,17,59,4.80
2015,08,30,18,00,4.80
2015,08,30,18,01,11.30
2015,08,30,18,02,6.40
2015,08,30,18,03,6.40
2015,08,30,18,04,8.10
2015,08,30,18,05,6.40
2015,08,30,18,06,11.30
2015,08,30,18,07,4.80
2015,08,30,18,08,4.80
2015,08,30,18,09,4.80
2015,08,30,18,10,3.20
2015,08,30,18,11,3.20
2015,08,30,18,12,4.80
2015,08,30,18,13,6.40
2015,08,30,18,14,4.80
2015,08,30,18,15,6.40
2015,08,30,18,16,8.10
2015,08,30,18,17,8.10
2015,08,30,18,18,8.10
2015,08,30,18,19,8.10
2015,08,30,18,20,9.60
2015,08,30,18,21,9.60
2015,08,30,18,22,9.60
2015,08,30,18,23,9.60
2015,08,30,18,24,6.40
2015,08,30,18,25,8.10
2015,08,30,18,26,1.60
2015,08,30,18,27,4.80
2015,08,30,18,28,6.40
2015,08,30,18,29,6.40
2015,08,30,18,30,6.40
2015,08,30,18,31,6.40
2015,08,30,18,32,3.20
2015,08,30,18,33,3.20
2015,08,30,18,34,4.80
2015,08,30,18,35,4.80
2015,08,30,18,36,11.30
2015,08,30,18,37,8.10
2015,08,30,18,38,11.30
2015,08,30,18,39,4.80
2015,08,30,18,40,8.10
2015,08,30,18,41,9.60
2015,08,30,18,42,9.60
2015,08,30,18,43,3.20
2015,08,30,18,44,3.20
2015,08,30,18,45,1.60
2015,08,30,18,46,3.20
2015,08,30,18,47,1.60
2015,08,30,18,48,6.40
2015,08,30,18,49,1.60
2015,08,30,18,50,3.20
2015,08,30,18,51,6.40
2015,08,30,18,52,6.40
2015,08,30,18,53,8.10
2015,08,30,18,54,4.80
2015,08,30,18,55,6.40
2015,08,30,18,56,6.40
2015,08,30,18,57,4.80
2015,08,30,18,58,8.10
2015,08,30,18,59,6.40
2015,08,30,19,00,4.80
2015,08,30,19,01,1.60
2015,08,30,19,02,3.20
2015,08,30,19,03,1.60
2015,08,30,19,04,1.60
2015,08,30,19,05,1.60
2015,08,30,19,09,3.20
2015,08,30,19,10,1.60
2015,08,30,19,11,4.80
2015,08,30,19,12,3.20
2015,08,30,19,13,1.60
2015,08,30,19,14,1.60
2015,08,30,19,15,1.60
2015,08,30,19,16,3.20
2015,08,30,19,17,3.20
2015,08,30,19,18,1.60
2015,08,30,19,19,6.40
2015,08,30,19,20,6.40
2015,08,30,19,21,4.80
2015,08,30,19,22,4.80
2015,08,30,19,23,3.20
2015,08,30,19,24,4.80
2015,08,30,19,25,3.20
2015,08,30,19,26,6.40
2015,08,30,19,27,1.60
2015,08,30,19,28,3.20
2015,08,30,19,29,3.20
2015,08,30,19,30,11.30
2015,08,30,19,31,9.60
2015,08,30,19,32,11.30
2015,08,30,19,33,9.60
2015,08,30,19,34,8.10
2015,08,30,19,35,8.10
2015,08,30,19,36,6.40
2015,08,30,19,37,4.80
2015,08,30,19,38,11.30
2015,08,30,19,39,11.30
2015,08,30,19,40,4.80
2015,08,30,19,41,11.30
2015,08,30,19,42,14.50
2015,08,30,19,43,6.40
2015,08,30,19,44,6.40
2015,08,30,19,45,8.10
2015,08,30,19,46,3.20
2015,08,30,19,48,4.80
2015,08,30,19,50,1.60
2015,08,30,19,51,6.40
2015,08,30,19,52,12.90
2015,08,30,19,53,14.50
2015,08,30,19,54,11.30
2015,08,30,19,55,8.10
2015,08,30,19,56,11.30
2015,08,30,19,57,8.10
2015,08,30,19,58,8.10
2015,08,30,19,59,9.60
2015,08,30,20,00,8.10
2015,08,30,20,01,3.20
2015,08,30,20,02,9.60
2015,08,30,20,03,4.80
2015,08,30,20,04,6.40
2015,08,30,20,05,8.10
2015,08,30,20,06,4.80
2015,08,30,20,07,6.40
2015,08,30,20,08,9.60
2015,08,30,20,09,6.40
2015,08,30,20,10,4.80
2015,08,30,20,11,4.80
2015,08,30,20,12,3.20
2015,08,30,20,13,4.80
2015,08,30,20,14,1.60
2015,08,30,20,16,6.40
2015,08,30,20,17,9.60
2015,08,30,20,18,3.20
2015,08,30,20,19,4.80
2015,08,30,20,20,6.40
2015,08,30,20,21,3.20
2015,08,30,20,22,4.80
2015,08,30,20,23,11.30
2015,08,30,20,24,9.60
2015,08,30,20,25,8.10
2015,08,30,20,26,11.30
2015,08,30,20,27,12.90
2015,08,30,20,28,9.60
2015,08,30,20,29,6.40
2015,08,30,20,30,11.30
2015,08,30,20,31,8.10
2015,08,30,20,32,11.30
2015,08,30,20,33,8.10
2015,08,30,20,34,4.80
2015,08,30,20,35,4.80
2015,08,30,20,37,3.20
2015,08,30,20,38,4.80
2015,08,30,20,39,6.40
2015,08,30,20,40,6.40
2015,08,30,20,41,6.40
2015,08,30,20,42,6.40
2015,08,30,20,43,4.80
2015,08,30,20,44,6.40
2015,08,30,20,45,8.10
2015,08,30,20,46,6.40
2015,08,30,20,47,6.40
2015,08,30,20,48,9.60
2015,08,30,20,49,9.60
2015,08,30,20,50,9.60
2015,08,30,20,51,4.80
2015,08,30,20,52,1.60
2015,08,30,20,53,1.60
2015,08,30,20,54,3.20
2015,08,30,20,55,9.60
2015,08,30,20,56,6.40
2015,08,30,20,57,4.80
2015,08,30,20,58,4.80
2015,08,30,20,59,6.40
2015,08,30,21,00,4.80
2015,08,30,21,01,1.60
2015,08,30,21,02,4.80
2015,08,30,21,03,3.20
2015,08,30,21,05,6.40
2015,08,30,21,06,4.80
2015,08,30,21,07,3.20
2015,08,30,21,08,6.40
2015,08,30,21,09,8.10
2015,08,30,21,10,16.10
2015,08,30,21,11,12.90
2015,08,30,21,12,8.10
2015,08,30,21,13,4.80
2015,08,30,21,14,6.40
2015,08,30,21,15,6.40
2015,08,30,21,17,1.60
2015,08,30,21,18,4.80
2015,08,30,21,19,4.80
2015,08,30,21,20,4.80